Location: Bayou Vista
(29.6905°N, 91.2709°W)
Time: 03:11:26
(UTC+00:00)

Transit 4A - Pass Details

Date: 13 August 2024
Orbit: 867 x 976 km, 66.8° (Epoch: 09 September)

Event Time Altitude Azimuth Distance (km) Brightness Sun altitude
Rises 02:17:32 0° 332° (NNW) 3,580 12.0 -18.7°
Reaches altitude 10° 02:20:03 10° 330° (NNW) 2,650 11.2 -19.1°
Maximum altitude 02:26:11 68° 248° (WSW) 1,023 8.2 -20.3°
Enters shadow 02:30:13 23° 171° (S) 1,910 9.2 -21.0°
